Temperature
16 16 16 16 16 16 16 16 16 16 16 16 16 16 16 15 15 15 15 15 15 16 15 16 16 16 16 16 16 15 15 15 15 15 15 15 15 15 15 15 15 15 15
16 16 16 16 16 16 16 16 16 16 16 16 16 15 15 15 15 15 15 15 15 15 15 15 15 15 15 15 15 15 15 15 15 15 15 15 15 15 15 15 15 15 15
16 16 16 16 16 16 16 16 16 16 16 16 15 15 15 15 15 15 15 15 15 15 15 15 15 15 15 15 15 15 15 15 15 15 15 14 15 15 15 15 15 15 15
15 15 15 16 15 15 15 15 15 16 16 15 15 15 15 15 15 15 15 15 15 15 15 15 15 15 15 15 15 15 15 15 15 15 14 14 14 14 15 15 15 15 15
15 15 15 15 15 15 15 15 15 15 15 15 15 15 15 15 15 15 15 15 15 15 15 15 15 15 15 15 15 15 15 15 15 14 14 14 14 14 14 14 15 15 14
15 14 15 15 15 15 15 15 15 15 15 15 15 15 15 15 15 15 15 15 15 15 15 15 15 15 15 15 15 15 15 15 14 14 14 14 14 14 14 14 14 14 14
14 14 14 14 15 15 15 15 15 15 15 15 15 15 15 14 14 15 15 15 15 15 15 15 15 15 15 15 15 15 15 15 14 14 13 13 14 14 14 14 14 14 14
14 14 14 14 14 14 14 14 15 15 15 14 14 14 14 14 14 14 14 15 14 14 14 14 14 14 15 15 15 15 14 14 14 13 13 13 14 14 14 14 14 14 14
14 14 13 14 14 14 14 14 14 14 14 14 14 14 14 14 14 14 14 14 14 14 14 14 14 14 14 14 14 14 14 14 13 13 13 13 13 13 13 13 13 13 13
13 13 13 13 13 14 14 14 14 14 14 14 14 14 14 14 14 14 14 14 14 14 14 14 14 14 14 14 14 14 14 14 13 13 13 13 13 13 13 13 13 13 13
13 13 13 13 13 13 13 13 13 13 13 13 13 14 14 14 14 14 14 14 14 14 14 14 14 14 14 13 13 13 13 13 13 13 13 13 13 13 13 13 13 13 13
13 13 13 13 13 13 13 13 13 13 13 13 13 13 13 13 13 14 13 13 13 13 13 14 13 13 13 13 13 13 13 13 12 12 13 13 13 13 13 13 13 13 13
13 13 13 13 13 13 13 13 13 13 13 13 13 13 13 13 13 13 13 13 13 13 13 13 13 13 13 13 13 12 12 12 12 12 12 12 12 12 13 13 13 13 13
12 12 13 12 12 12 12 12 12 12 12 12 12 13 13 13 13 13 13 13 13 13 13 13 13 13 13 12 12 12 12 12 12 12 12 12 12 12 12 12 12 12 12
12 12 12 12 12 12 12 12 12 12 12 12 12 12 12 12 12 13 13 13 13 13 13 13 13 12 12 12 12 12 12 12 12 12 12 12 12 12 12 12 12 12 12
12 12 12 12 12 12 12 12 12 12 12 12 12 12 12 12 12 12 12 12 12 12 12 12 12 12 12 12 12 12 12 12 11 11 11 11 11 11 11 11 11 11 11
12 12 12 12 12 12 12 12 12 12 11 11 11 12 12 12 12 12 12 12 12 12 12 12 12 12 12 12 11 11 11 11 11 11 11 11 11 11 11 11 11 11 11
12 12 12 12 12 11 11 11 11 11 11 11 11 11 11 11 12 12 12 12 12 12 12 12 12 12 12 11 11 11 11 11 11 11 11 11 11 11 11 11 11 11 11
12 12 12 11 11 11 11 11 11 11 11 11 11 11 11 11 11 11 11 11 11 11 12 12 11 11 11 11 11 11 11 11 11 10 10 10 10 10 10 11 11 11 10
12 12 12 11 11 11 11 11 11 11 11 11 11 11 11 11 11 11 11 11 11 11 11 11 11 11 11 11 11 10 10 10 10 10 10 10 10 10 10 10 10 10 10
11 11 11 11 11 11 11 10 10 10 11 11 11 11 11 11 11 11 11 11 11 11 11 11 11 11 11 10 10 10 10 10 10 10 10 10 10 10 10 10 10 10 10
11 11 11 11 11 11 11 11 10 10 10 10 10 10 10 10 11 10 11 11 10 10 10 10 10 10 10 10 10 9 9 9 9 9 9 9 9 9 9 9 9 9 9
11 11 11 11 11 11 10 10 10 10 10 10 10 10 10 10 10 10 10 10 10 10 10 10 10 10 10 10 10 9 9 9 8 9 9 9 9 9 9 9 9 9 9
10 10 11 11 11 10 10 10 10 10 10 10 10 10 10 10 10 10 10 10 10 10 10 10 10 10 10 10 9 10 9 9 8 8 8 8 8 8 8 8 8 8 8
10 10 10 10 10 10 10 10 10 10 9 10 9 9 9 9 9 10 10 9 9 9 9 9 9 9 9 9 9 9 9 9 9 8 7 7 8 8 8 8 8 8 8
9 9 10 10 10 10 10 10 10 9 9 9 9 9 9 9 9 9 9 9 9 9 9 9 9 9 9 9 9 9 9 9 9 8 8 7 7 7 7 7 7 7 7
Wind_Speed
8 11 13 12 12 12 11 11 11 11 11 11 10 10 10 10 11 11 11 12 11 11 12 12 12 12 13 13 13 14 14 15 15 15 15 15 15 14 14 12 12 15 16
10 12 13 13 12 12 12 11 11 11 10 10 10 10 10 10 10 11 11 11 11 11 11 11 12 12 13 13 14 14 14 15 15 14 14 15 14 14 14 13 13 14 15
11 12 14 12 12 12 12 12 11 10 10 10 10 9 10 10 10 10 11 11 11 11 11 11 12 13 13 13 14 14 14 14 13 11 10 12 13 13 14 14 14 15 15
11 12 13 13 12 12 12 11 11 10 10 9 9 9 9 9 9 10 10 11 11 11 11 11 12 13 13 13 13 13 13 13 11 7 9 11 12 13 13 13 14 14 15
10 11 12 12 12 12 12 11 11 10 10 9 9 9 9 9 10 9 10 10 11 11 12 12 12 12 13 13 13 12 12 12 10 7 10 10 11 12 13 13 14 14 14
10 10 12 12 12 11 11 11 11 11 10 9 9 9 9 9 10 9 9 10 11 11 12 12 12 12 13 13 12 12 11 10 9 9 9 10 11 12 12 12 13 13 13
9 9 11 10 11 11 11 11 11 11 10 10 9 9 9 9 9 9 9 10 11 11 11 12 12 12 13 12 12 12 11 8 8 9 9 9 10 11 11 12 12 12 12
9 9 10 10 10 11 11 11 11 10 10 10 9 9 9 8 9 9 9 10 11 11 11 12 12 12 12 12 11 11 10 7 8 9 9 10 11 11 11 11 11 10 10
9 9 9 10 10 10 10 10 10 10 10 9 9 9 8 8 9 8 9 10 11 11 11 12 12 12 12 12 12 11 10 6 8 8 8 9 10 10 10 10 10 10 10
8 8 8 9 10 10 10 10 11 10 10 10 9 9 9 8 9 8 8 9 10 11 11 12 13 13 12 12 11 11 9 7 7 8 7 8 9 9 10 10 10 10 9
8 8 8 8 9 9 9 10 11 10 10 10 10 10 9 8 8 8 8 9 10 11 11 12 13 13 12 11 10 10 8 6 6 6 6 8 9 9 9 9 9 9 9
10 9 8 9 8 8 8 9 9 10 10 10 9 10 8 7 7 7 9 9 10 11 11 12 12 12 10 9 9 8 6 6 5 5 6 8 8 8 8 8 8 8 8
11 10 9 9 9 8 7 8 7 7 8 9 10 9 8 7 7 7 7 8 9 10 9 10 10 8 7 7 7 6 5 5 5 5 6 8 7 7 8 7 7 7 7
10 10 10 9 9 9 8 7 7 6 7 7 9 9 8 6 6 6 6 6 7 7 7 7 7 8 8 7 7 7 6 5 5 5 7 8 7 7 7 7 7 7 6
10 10 10 10 10 9 8 7 7 7 7 8 8 9 9 7 6 6 6 5 6 6 7 7 6 7 7 7 6 6 6 6 6 6 7 8 7 6 6 6 6 6 6
11 11 10 10 10 10 8 8 7 7 8 8 8 9 9 8 7 6 6 5 5 6 6 7 7 7 6 6 6 6 6 6 7 6 6 7 6 5 5 5 5 4 4
12 11 10 10 10 10 10 9 8 8 8 7 7 9 9 8 8 7 6 5 5 6 7 7 7 7 6 6 6 6 6 6 6 6 6 5 5 6 5 5 5 4 4
11 11 10 9 10 10 9 9 8 8 8 8 8 8 9 9 9 7 6 5 7 7 6 6 6 6 6 6 5 5 5 5 6 5 5 5 4 4 5 5 4 4 3
12 11 11 10 10 10 9 8 8 8 8 8 8 8 9 10 9 8 6 6 7 7 6 6 6 6 6 6 5 5 5 5 4 5 4 4 4 4 3 4 4 4 3
11 11 11 10 10 9 8 7 6 6 7 7 8 9 10 10 10 9 7 8 7 6 6 7 8 6 6 6 6 5 4 4 4 4 3 4 4 4 4 3 3 3 4
9 10 11 10 10 9 7 7 7 7 6 6 6 9 10 10 10 9 7 8 7 7 8 9 8 8 7 6 5 4 4 4 3 3 3 3 3 3 4 4 3 2 3
10 10 10 11 11 10 8 7 6 6 6 6 6 7 10 10 10 9 9 8 8 7 9 9 9 6 5 5 5 4 3 3 2 2 2 2 2 2 3 3 4 3 2
9 10 10 11 12 11 10 7 6 5 4 5 6 6 8 10 10 9 10 9 8 8 8 10 10 9 7 5 3 3 3 3 2 2 1 1 1 1 1 2 3 2 2
9 9 10 10 11 11 10 10 10 9 8 8 7 6 7 9 9 10 10 10 9 8 9 9 9 8 9 7 4 1 1 2 2 2 2 2 1 0 1 1 1 1 1
8 8 9 10 10 10 10 11 11 10 8 7 7 7 7 7 8 9 10 10 9 8 9 9 8 7 7 7 5 3 2 2 2 2 3 3 2 1 1 1 0 0 1
6 7 8 9 9 10 10 11 12 12 10 9 9 8 7 6 6 8 9 9 9 9 9 9 8 8 7 6 5 4 4 3 3 3 3 3 3 2 2 1 1 1 0
Wind_Direction
160 157 152 152 147 144 140 136 132 128 129 131 130 127 126 124 124 125 129 130 127 125 122 119 118 114 112 109 106 102 98 95 92 91 90 89 89 90 87 85 88 86 83
155 156 152 152 150 148 145 141 137 133 129 133 135 134 131 128 125 126 125 125 128 127 125 124 123 120 117 114 110 105 101 98 96 96 98 95 90 89 87 77 74 86 86
152 154 155 151 152 151 148 144 142 138 133 134 139 139 136 134 130 128 129 125 123 124 123 121 120 119 117 115 113 110 107 104 101 106 116 104 97 92 90 86 86 89 89
153 155 156 150 153 152 151 148 146 144 140 139 141 142 143 141 136 129 130 131 126 121 121 121 119 118 116 115 116 114 112 109 108 121 108 100 100 95 93 91 90 89 89
154 156 151 153 154 154 154 152 150 149 147 144 144 145 144 142 138 134 131 132 129 124 122 121 120 119 117 117 116 117 117 115 117 116 101 101 101 99 95 93 92 91 90
157 156 152 157 156 156 158 157 155 154 151 149 146 145 145 143 142 139 136 134 131 127 125 123 120 120 120 118 118 119 121 129 133 111 107 105 103 102 99 96 97 95 92
159 157 155 156 157 160 162 160 158 158 156 154 148 146 148 146 143 142 141 136 134 132 129 127 124 121 119 121 120 120 122 131 124 113 107 103 102 104 103 101 101 99 96
161 161 160 158 156 162 164 164 161 158 158 156 152 149 145 146 144 144 146 141 138 137 133 130 126 124 121 119 121 122 122 133 125 114 108 103 102 104 104 104 102 102 100
165 166 165 166 162 159 161 163 161 159 157 154 151 148 141 142 144 145 146 146 142 140 137 134 131 126 123 118 114 116 119 122 123 115 111 105 106 106 105 104 103 105 105
173 175 172 171 170 171 170 166 163 160 157 153 147 142 140 142 146 147 146 147 146 143 140 137 134 129 124 119 116 113 120 132 123 118 114 109 110 110 107 105 102 101 104
183 184 180 176 174 174 175 170 167 161 157 153 149 145 151 158 157 157 147 142 146 145 143 139 136 131 126 120 117 121 125 132 124 116 110 107 115 114 110 106 102 100 101
192 190 188 183 178 177 175 174 175 173 167 169 164 162 164 161 154 150 136 137 141 146 146 142 140 139 138 133 127 134 133 126 125 119 108 109 118 121 117 111 104 98 97
196 193 192 190 184 183 178 178 175 176 174 173 169 167 164 158 152 151 149 147 151 155 155 152 150 151 145 138 139 142 137 129 120 118 114 114 116 119 121 116 110 101 99
200 198 196 193 190 188 184 181 178 175 177 175 172 169 167 160 159 158 158 160 162 164 159 160 157 152 146 141 140 138 136 132 124 115 108 112 110 109 115 118 114 107 106
205 201 198 196 195 190 186 184 182 179 183 179 176 175 174 167 166 163 161 161 163 163 161 156 152 150 145 140 137 135 132 130 128 123 111 103 104 103 106 113 113 112 107
210 207 201 198 197 191 188 186 185 183 180 182 180 179 179 174 167 167 167 165 162 163 164 159 154 148 143 138 135 132 131 127 123 121 117 108 95 97 100 108 113 108 109
212 209 205 201 198 194 193 189 183 182 180 179 180 181 180 178 172 170 169 169 165 163 159 154 153 145 140 136 132 125 121 122 121 117 111 109 108 95 91 97 100 99 101
213 209 205 201 198 197 193 187 184 182 180 178 179 180 182 181 178 171 170 171 168 164 160 157 156 152 144 142 138 128 121 116 114 112 108 102 102 104 93 86 92 93 96
211 207 203 200 196 193 187 184 182 179 181 180 179 181 181 180 179 174 170 167 169 166 163 161 160 157 150 144 135 127 120 115 111 109 108 99 92 89 91 92 92 86 88
209 205 201 196 194 187 181 181 179 178 182 183 183 183 181 179 180 177 171 170 172 170 165 164 157 149 144 139 130 119 113 109 102 99 99 92 83 77 72 84 100 99 78
203 201 199 194 188 181 179 181 183 188 185 186 186 186 184 181 180 179 175 173 178 176 170 165 155 147 142 139 129 121 109 103 103 99 93 90 79 66 58 53 59 79 85
203 201 199 194 187 185 188 187 188 185 188 185 183 186 186 184 181 181 181 179 180 175 171 166 159 157 151 161 158 155 158 154 130 103 107 97 76 72 60 48 52 55 64
207 203 199 194 190 187 185 179 167 169 175 183 183 187 188 186 183 182 183 180 179 179 174 170 170 168 168 169 173 181 180 183 151 147 152 136 97 73 53 48 52 46 49
207 204 200 194 190 189 185 183 182 187 192 195 188 188 184 186 185 183 181 180 178 178 173 173 177 173 171 171 172 192 221 136 168 168 178 182 165 289 324 25 62 48 30
203 198 197 193 190 189 189 189 189 194 196 188 182 182 182 185 187 185 184 178 176 177 174 173 175 175 176 177 173 164 153 146 168 189 198 202 211 244 260 269 269 33 24
196 190 188 186 189 191 190 189 192 192 188 183 182 181 182 182 185 186 184 179 176 176 174 175 175 178 176 173 169 171 173 175 182 189 201 201 215 229 253 266 266 269 323
Height
1520 1521 1523 1526 1528 1529 1531 1533 1534 1535 1536 1537 1538 1539 1539 1540 1541 1542 1542 1543 1544 1544 1545 1546 1546 1547 1548 1548 1548 1549 1549 1549 1549 1550 1550 1550 1550 1551 1551 1551 1551 1551 1551
1518 1521 1523 1525 1527 1529 1531 1533 1534 1535 1536 1537 1538 1539 1540 1541 1541 1542 1543 1544 1544 1545 1546 1546 1547 1548 1548 1549 1549 1550 1550 1551 1551 1551 1552 1552 1552 1552 1553 1553 1553 1553 1553
1518 1520 1522 1525 1527 1529 1531 1532 1534 1535 1536 1537 1538 1539 1540 1541 1542 1542 1543 1544 1545 1546 1546 1547 1548 1549 1549 1550 1550 1551 1551 1552 1553 1553 1554 1554 1554 1554 1554 1554 1555 1555 1555
1518 1520 1522 1524 1527 1528 1530 1532 1533 1535 1536 1537 1538 1539 1540 1541 1542 1543 1544 1545 1545 1546 1547 1548 1548 1549 1550 1551 1551 1552 1552 1553 1554 1555 1556 1556 1556 1556 1556 1556 1556 1556 1557
1518 1520 1521 1524 1526 1528 1530 1531 1533 1534 1535 1536 1537 1538 1539 1541 1542 1543 1544 1545 1546 1546 1547 1548 1549 1550 1551 1551 1552 1553 1554 1554 1555 1556 1557 1557 1557 1557 1557 1558 1558 1558 1558
1517 1520 1521 1523 1525 1527 1529 1531 1532 1533 1535 1536 1537 1538 1539 1540 1541 1542 1543 1545 1546 1547 1547 1548 1549 1550 1551 1552 1553 1554 1555 1556 1557 1558 1558 1559 1559 1559 1559 1559 1559 1560 1560
1517 1519 1520 1523 1525 1526 1528 1530 1531 1532 1534 1535 1536 1537 1539 1540 1541 1542 1543 1545 1546 1547 1548 1549 1550 1550 1551 1552 1553 1554 1555 1557 1558 1559 1559 1560 1560 1560 1560 1561 1561 1561 1561
1516 1518 1520 1522 1524 1525 1527 1529 1530 1531 1532 1534 1535 1536 1538 1539 1540 1542 1543 1544 1546 1547 1548 1549 1550 1551 1552 1553 1554 1555 1556 1557 1559 1560 1560 1561 1561 1561 1561 1562 1562 1562 1563
1515 1517 1519 1521 1522 1524 1526 1527 1529 1530 1531 1533 1534 1536 1537 1538 1540 1541 1543 1544 1545 1547 1548 1549 1550 1551 1552 1553 1554 1555 1557 1558 1560 1560 1561 1561 1562 1562 1562 1563 1563 1563 1563
1514 1516 1517 1519 1521 1522 1524 1526 1527 1529 1530 1531 1533 1535 1536 1537 1539 1540 1542 1544 1545 1547 1548 1549 1550 1551 1552 1554 1555 1556 1557 1559 1560 1561 1561 1562 1562 1563 1563 1563 1564 1564 1564
1512 1514 1515 1517 1519 1521 1522 1524 1525 1527 1528 1530 1532 1533 1535 1536 1538 1540 1541 1543 1545 1546 1548 1549 1550 1551 1552 1554 1555 1556 1558 1559 1560 1561 1562 1562 1562 1563 1563 1564 1564 1564 1564
1509 1511 1513 1515 1517 1518 1520 1522 1523 1525 1526 1528 1530 1532 1534 1535 1537 1538 1540 1542 1544 1545 1547 1549 1550 1551 1553 1554 1555 1557 1558 1559 1560 1561 1561 1562 1563 1563 1563 1564 1564 1564 1564
1507 1508 1510 1512 1514 1516 1518 1520 1521 1523 1524 1526 1528 1530 1532 1533 1535 1537 1538 1540 1543 1545 1546 1548 1549 1551 1552 1553 1555 1556 1558 1559 1560 1560 1561 1562 1562 1563 1563 1564 1564 1564 1564
1504 1506 1508 1510 1511 1513 1515 1517 1519 1520 1522 1523 1526 1528 1530 1531 1533 1535 1537 1539 1541 1543 1545 1546 1548 1550 1551 1553 1554 1556 1557 1558 1559 1560 1560 1561 1562 1563 1563 1563 1564 1564 1564
1501 1503 1505 1507 1509 1510 1512 1514 1516 1518 1519 1521 1524 1526 1528 1529 1531 1533 1535 1537 1539 1541 1543 1545 1547 1549 1550 1552 1554 1555 1556 1557 1558 1559 1560 1561 1561 1562 1562 1563 1563 1564 1564
1497 1500 1502 1503 1505 1508 1509 1511 1513 1516 1517 1519 1521 1523 1525 1527 1529 1531 1533 1535 1537 1539 1542 1544 1545 1547 1549 1551 1552 1554 1555 1557 1558 1559 1559 1560 1561 1561 1562 1562 1563 1563 1563
1494 1496 1498 1500 1502 1504 1506 1508 1511 1513 1515 1517 1519 1521 1523 1525 1527 1529 1531 1533 1535 1538 1540 1542 1544 1546 1548 1549 1551 1553 1554 1556 1557 1558 1559 1559 1560 1560 1560 1561 1562 1562 1563
1490 1492 1494 1497 1499 1501 1503 1505 1508 1510 1512 1514 1516 1518 1520 1522 1525 1527 1528 1531 1533 1535 1538 1540 1542 1544 1546 1548 1549 1551 1553 1554 1556 1557 1557 1558 1559 1559 1559 1560 1561 1561 1562
1486 1488 1491 1493 1495 1498 1500 1502 1505 1507 1509 1511 1513 1515 1517 1520 1522 1524 1526 1528 1531 1533 1536 1538 1540 1542 1544 1546 1547 1549 1551 1553 1554 1555 1556 1557 1557 1558 1558 1558 1559 1560 1560
1482 1484 1487 1489 1492 1494 1496 1499 1501 1503 1505 1508 1510 1512 1515 1517 1519 1521 1523 1525 1528 1531 1533 1535 1538 1540 1542 1544 1545 1547 1549 1551 1552 1553 1554 1555 1556 1556 1557 1557 1557 1558 1558
1478 1480 1482 1485 1488 1490 1492 1494 1497 1499 1502 1505 1507 1509 1512 1514 1516 1518 1520 1523 1525 1528 1530 1533 1535 1537 1539 1542 1543 1545 1547 1549 1551 1552 1553 1553 1554 1554 1555 1555 1556 1556 1556
1473 1475 1478 1480 1483 1486 1488 1491 1494 1496 1499 1501 1503 1506 1508 1511 1513 1515 1517 1520 1522 1525 1528 1530 1531 1534 1536 1539 1541 1543 1545 1548 1548 1550 1551 1552 1552 1553 1553 1554 1554 1554 1554
1468 1471 1473 1476 1479 1482 1485 1488 1490 1493 1495 1497 1499 1502 1505 1507 1510 1512 1514 1517 1519 1522 1524 1526 1529 1531 1533 1536 1538 1541 1543 1544 1546 1548 1549 1550 1551 1551 1552 1552 1552 1552 1553
1464 1467 1470 1472 1475 1478 1481 1483 1486 1488 1491 1493 1496 1499 1502 1504 1506 1509 1511 1513 1516 1519 1521 1524 1526 1528 1531 1533 1535 1538 1540 1540 1543 1545 1547 1548 1549 1549 1550 1550 1550 1550 1550
1460 1463 1465 1468 1471 1474 1476 1479 1482 1485 1488 1491 1493 1496 1498 1500 1503 1505 1507 1510 1513 1515 1518 1520 1523 1525 1527 1530 1532 1534 1536 1538 1540 1541 1543 1545 1546 1547 1547 1548 1548 1548 1547
1457 1459 1461 1464 1467 1470 1472 1475 1478 1481 1484 1487 1489 1492 1494 1496 1499 1501 1503 1506 1509 1512 1514 1517 1520 1522 1524 1527 1529 1532 1534 1535 1537 1538 1540 1541 1542 1543 1544 1544 1545 1545 1545